Location: Brighton Point
(40.6144°N, 111.7933°W)
Time: 19:45:56
(UTC+00:00)

N. Korean satellite - Pass Details

Date: 14 March 2021
Orbit: 452 x 499 km, 97.2° (Epoch: 15 April)

Event Time Altitude Azimuth Distance (km) Brightness Sun altitude
Rises 13:01:28 0° 8° (N) 2,566 10.4 -8.1°
Reaches altitude 10° 13:03:32 10° 6° (N) 1,687 9.4 -7.7°
Maximum altitude 13:07:09 67° 284° (WNW) 541 6.6 -7.0°
Drops below altitude 10° 13:10:46 10° 202° (SSW) 1,692 9.1 -6.3°
Sets 13:12:51 0° 199° (SSW) 2,574 10.0 -6.0°
